Weather History for KLSB - February, 2012

Change the Weather History Date:

Friday, February 17, 2012

  Actual Average Record
Temperature  
Mean Temperature 40 °F -  
Max Temperature 44 °F 63 °F 73 °F (2014)
Min Temperature 35 °F 27 °F 23 °F (2013)
Degree Days  
Heating Degree Days 26    
Moisture  
Dew Point 38 °F    
Average Humidity 94    
Maximum Humidity 100    
Minimum Humidity 81    
Precipitation  
Precipitation 0.39 in - - ()
Sea Level Pressure  
Sea Level Pressure 30.05 in    
Wind  
Wind Speed 3 mph ()    
Max Wind Speed 10 mph    
Max Gust Speed -    
Visibility 8.2 miles    
Events Rain , Snow , Thunderstorm    
Averages and records for this station are not official NWS values.
T = Trace of Precipitation, MM = Missing Value Source: Averaged Metar Reports

Daily Weather History Graph

Daily Weather History Graph

Search for Another Location

Airport or City:

Trip Planner

Search our weather history database for the weather conditions in past years. The results will help you decide how hot, cold, wet, or windy it might be!

Date:

Astronomy

Feb. 17, 2012 Rise Set
Actual Time 6:55 AM MST 6:02 PM MST
Civil Twilight 6:30 AM MST 6:27 PM MST
Nautical Twilight 6:02 AM MST 6:55 PM MST
Astronomical Twilight 5:33 AM MST 7:24 PM MST
Moon 3:39 AM MST (2/17) 2:08 PM MST (2/17)
Length of Visible Light 11h 56m
Length of Day
11h 06m
Waning Crescent, 18% of the Moon is Illuminated
Feb 17
Waning Crescent
Feb 21
New
Feb 29
First Quarter
Mar 8
Full
Mar 14
Last Quarter

Hourly Weather History & Observations

Time (MST) Temp. Windchill Dew Point Humidity Pressure Visibility Wind Dir Wind Speed Gust Speed Precip Events Conditions
12:15 AM 41.0 °F 35.8 °F 39.2 °F 93% 30.03 in 10.0 mi NE 8.1 mph - N/A Rain Rain
12:35 AM 41.0 °F 35.8 °F 39.2 °F 93% 30.02 in 10.0 mi North 8.1 mph - N/A   Light Drizzle
12:55 AM 41.0 °F 35.8 °F 39.2 °F 93% 30.01 in 10.0 mi North 8.1 mph - N/A   Overcast
1:35 AM 41.0 °F 39.0 °F 37.4 °F 87% 30.00 in 10.0 mi North 3.5 mph - N/A Thunderstorm Overcast
1:55 AM 42.8 °F - 37.4 °F 81% 29.99 in 10.0 mi Calm Calm - N/A   Overcast
2:15 AM 42.8 °F 41.1 °F 37.4 °F 81% 30.00 in 10.0 mi NW 3.5 mph - N/A   Drizzle
2:35 AM 42.8 °F 40.1 °F 39.2 °F 87% 29.99 in 10.0 mi West 4.6 mph - N/A Rain Rain
2:55 AM 41.0 °F 34.7 °F 41.0 °F 100% 29.99 in 7.0 mi West 10.4 mph - 0.01 in Rain Rain
3:15 AM 41.0 °F 36.4 °F 41.0 °F 100% 29.99 in 10.0 mi WSW 6.9 mph - N/A   Drizzle
3:35 AM 41.0 °F 35.2 °F 41.0 °F 100% 30.00 in 10.0 mi WSW 9.2 mph - N/A Rain Rain
3:55 AM 41.0 °F 35.2 °F 41.0 °F 100% 30.00 in 4.0 mi SW 9.2 mph - 0.03 in Rain Rain
4:15 AM 41.0 °F 36.4 °F 39.2 °F 93% 30.01 in 4.0 mi SSW 6.9 mph - 0.03 in Rain Rain
4:35 AM 39.2 °F 35.9 °F 37.4 °F 93% 30.01 in 5.0 mi SW 4.6 mph - 0.07 in   Overcast
5:15 AM 37.4 °F - 37.4 °F 100% 30.02 in 7.0 mi Calm Calm - 0.01 in   Overcast
5:35 AM 37.4 °F 33.8 °F 37.4 °F 100% 30.02 in 5.0 mi WSW 4.6 mph - 0.05 in   Overcast
6:15 AM 37.4 °F - 35.6 °F 93% 30.03 in 7.0 mi Calm Calm - 0.01 in   Overcast
6:35 AM 37.4 °F - 35.6 °F 93% 30.04 in 5.0 mi Calm Calm - 0.03 in   Overcast
6:55 AM 37.4 °F 32.8 °F 35.6 °F 93% 30.04 in 7.0 mi SSE 5.8 mph - 0.04 in   Overcast
7:15 AM 37.4 °F 32.8 °F 35.6 °F 93% 30.06 in 5.0 mi SSE 5.8 mph - N/A   Overcast
7:35 AM 35.6 °F 31.7 °F 35.6 °F 100% 30.06 in 4.0 mi South 4.6 mph - 0.02 in   Overcast
7:55 AM 35.6 °F 31.7 °F 35.6 °F 100% 30.07 in 2.5 mi South 4.6 mph - 0.04 in   Overcast
8:15 AM 35.6 °F 32.8 °F 35.6 °F 100% 30.07 in 4.0 mi South 3.5 mph - 0.02 in Snow Light Snow
8:35 AM 35.6 °F 31.7 °F 35.6 °F 100% 30.08 in 5.0 mi South 4.6 mph - 0.03 in Snow Light Snow
8:55 AM 35.6 °F - 35.6 °F 100% 30.08 in 5.0 mi Calm Calm - 0.04 in Snow Light Snow
9:15 AM 35.6 °F - 35.6 °F 100% 30.09 in 3.0 mi Calm Calm - 0.01 in Snow Light Snow
9:35 AM 35.6 °F - 35.6 °F 100% 30.09 in 4.0 mi Calm Calm - 0.02 in Snow Light Snow
9:55 AM 35.6 °F - 35.6 °F 100% 30.09 in 5.0 mi Calm Calm - 0.03 in Snow Light Snow
10:15 AM 35.6 °F - 35.6 °F 100% 30.10 in 3.0 mi Calm Calm - 0.01 in Snow Light Snow
10:35 AM 35.6 °F - 35.6 °F 100% 30.10 in 5.0 mi Calm Calm - 0.02 in Snow Light Snow
10:55 AM 35.6 °F - 35.6 °F 100% 30.10 in 5.0 mi Calm Calm - 0.03 in   Overcast
11:15 AM 35.6 °F - 35.6 °F 100% 30.10 in 5.0 mi Calm Calm - 0.01 in   Overcast
11:35 AM 37.4 °F - 35.6 °F 93% 30.10 in 7.0 mi Calm Calm - 0.03 in   Overcast
11:55 AM 37.4 °F - 35.6 °F 93% 30.09 in 10.0 mi Calm Calm - 0.03 in   Overcast
12:15 PM 37.4 °F - 35.6 °F 93% 30.08 in 7.0 mi Calm Calm - N/A   Overcast
12:35 PM 37.4 °F - 37.4 °F 100% 30.08 in 7.0 mi Calm Calm - N/A   Overcast
12:55 PM 39.2 °F 37.0 °F 37.4 °F 93% 30.07 in 10.0 mi NNE 3.5 mph - 0.01 in Rain Light Rain
1:15 PM 39.2 °F 35.9 °F 37.4 °F 93% 30.06 in 7.0 mi North 4.6 mph - N/A Rain Light Rain
1:35 PM 41.0 °F 39.0 °F 37.4 °F 87% 30.06 in 10.0 mi NNE 3.5 mph - N/A   Drizzle
1:55 PM 41.0 °F - 37.4 °F 87% 30.06 in 10.0 mi Calm Calm - N/A   Drizzle
2:15 PM 41.0 °F - 37.4 °F 87% 30.05 in 10.0 mi Calm Calm - N/A   Drizzle
2:35 PM 41.0 °F - 39.2 °F 93% 30.05 in 10.0 mi Calm Calm - N/A   Light Drizzle
2:55 PM 42.8 °F 41.1 °F 39.2 °F 87% 30.04 in 10.0 mi North 3.5 mph - N/A   Drizzle
3:15 PM 42.8 °F 41.1 °F 39.2 °F 87% 30.04 in 10.0 mi NNE 3.5 mph - N/A   Drizzle
3:35 PM 42.8 °F - 39.2 °F 87% 30.04 in 10.0 mi Calm Calm - N/A   Drizzle
3:55 PM 42.8 °F - 39.2 °F 87% 30.04 in 10.0 mi Calm Calm - N/A   Drizzle
4:15 PM 42.8 °F - 41.0 °F 93% 30.04 in 10.0 mi Calm Calm - N/A   Light Drizzle
4:35 PM 42.8 °F - 41.0 °F 93% 30.04 in 10.0 mi Calm Calm - N/A   Overcast
5:15 PM 42.8 °F - 39.2 °F 87% 30.04 in 10.0 mi Calm Calm - N/A   Overcast
5:35 PM 42.8 °F - 41.0 °F 93% 30.04 in 10.0 mi Calm Calm - N/A   Overcast
5:55 PM 44.6 °F - 41.0 °F 87% 30.05 in 10.0 mi Calm Calm - N/A   Overcast
6:15 PM 44.6 °F - 41.0 °F 87% 30.06 in 10.0 mi Calm Calm - N/A Rain Light Rain
6:35 PM 42.8 °F - 41.0 °F 93% 30.06 in 10.0 mi Calm Calm - 0.01 in   Overcast
6:55 PM 42.8 °F - 41.0 °F 93% 30.06 in 10.0 mi Calm Calm - 0.01 in   Overcast
7:15 PM 42.8 °F 41.1 °F 41.0 °F 93% 30.07 in 10.0 mi NE 3.5 mph - N/A   Overcast
7:35 PM 42.8 °F - 41.0 °F 93% 30.07 in 10.0 mi Calm Calm - N/A   Overcast
7:55 PM 42.8 °F - 41.0 °F 93% 30.07 in 10.0 mi Calm Calm - N/A   Overcast
8:15 PM 42.8 °F - 41.0 °F 93% 30.08 in 10.0 mi Calm Calm - N/A   Overcast
8:35 PM 42.8 °F 41.1 °F 41.0 °F 93% 30.08 in 10.0 mi SW 3.5 mph - N/A   Overcast
8:55 PM 42.8 °F - 41.0 °F 93% 30.08 in 10.0 mi Calm Calm - N/A   Overcast
9:15 PM 42.8 °F - 41.0 °F 93% 30.08 in 10.0 mi Calm Calm - N/A   Overcast
9:35 PM 42.8 °F 41.1 °F 41.0 °F 93% 30.08 in 10.0 mi West 3.5 mph - N/A   Overcast
9:55 PM 42.8 °F 41.1 °F 41.0 °F 93% 30.08 in 10.0 mi West 3.5 mph - N/A   Overcast
10:15 PM 42.8 °F 41.1 °F 41.0 °F 93% 30.08 in 10.0 mi NW 3.5 mph - N/A   Overcast
10:35 PM 41.0 °F 39.0 °F 41.0 °F 100% 30.08 in 10.0 mi NW 3.5 mph - N/A   Mostly Cloudy
10:55 PM 41.0 °F 39.0 °F 39.2 °F 93% 30.08 in 10.0 mi North 3.5 mph - N/A   Clear
11:15 PM 41.0 °F 39.0 °F 41.0 °F 100% 30.08 in 10.0 mi NW 3.5 mph - N/A   Scattered Clouds
11:35 PM 41.0 °F 37.1 °F 39.2 °F 93% 30.08 in 10.0 mi NW 5.8 mph - N/A   Scattered Clouds
11:55 PM 41.0 °F 37.1 °F 39.2 °F 93% 30.08 in 10.0 mi WNW 5.8 mph - N/A   Scattered Clouds